Tracking 27111 objects as of 28-Mar-2023
HD Live streaming from Space Station
objects crossing your sky now

STARLINK-5402

Track STARLINK-5402 now!
10-day predictions
STARLINK-5402 is classified as:


NORAD ID: 54869
Int'l Code: 2022-177BB
Perigee: 565.5 km
Apogee: 566.9 km
Inclination: 43.0 °
Period: 95.8 minutes
Semi major axis: 6937 km
RCS: Unknown
Launch date: December 28, 2022
Source: United States (US)
Launch site: AIR FORCE EASTERN TEST RANGE (AFETR)
Your satellite tracking list
Your tracking list is empty




NASA's NSSDC Master Catalog

Two Line Element Set (TLE):
1 54869U 22177BB  23087.05059233  .00001063  00000-0  93733-4 0  9997
2 54869  43.0008 215.6306 0001000 266.1002  93.9726 15.02540355 13897
Source of the keplerian elements: AFSPC